{"data":{"norad_id":59846,"intl_designator":"2024-097M","name":"STARLINK-31922","alt_names":[],"object_type":"PAYLOAD","status":"ACTIVE","operator":null,"country":"US","launch_date":"2024-05-23","launch_site_code":"AFETR","launch_vehicle":null,"mission":null,"orbit_class":"UNKNOWN","rcs_meters":null,"size_class":null,"mass_kg":null,"dimensions":null,"purposes":["comms"],"wikipedia_slug":null,"has_3d_model":false,"image_url":null,"decayed_at":null,"tle_current":{"epoch":"2026-05-25T05:07:16.108896Z","epoch_age_seconds":63881,"freshness":"FRESH","line1":"1 59846U 24097M   26145.21338089 -.00000297  00000+0 -12509-5 0  9997","line2":"2 59846  43.0022 201.8890 0001358 280.3556  79.7142 15.27582784113621","mean_motion":15.27582784,"eccentricity":0.0001358,"inclination_deg":43.0022,"raan_deg":201.889,"arg_perigee_deg":280.3556,"mean_anomaly_deg":79.7142,"bstar":-1.2509e-6,"rev_number":11362,"period_min":94.266576913713,"perigee_km":482.109011815,"apogee_km":483.97250769455,"semimajor_km":6861.1777597548,"source":"CELESTRAK","updated_at":"2026-05-25T13:38:19.087466Z"}}}